This demonstration page uses our WeatherBlox Daily Observations layout. Learn more.

Left ArrowRight Arrow

41.12389, -100.76542

Hourly Observations for March 9, 2018

Temp ( °F °C ) Dew Point ( °F °C ) Humidity (%) Winds ( mph kmh ) Pressure ( in mb ) Visibility ( mi km ) Precip ( " mm )
12:53 am 00:53 Mostly Clear 28 -2.2 20 -6.7 72 72 E 3 6 29.84 1011 10 16 0.00 0.00
1:53 am 01:53 Clear 27 -2.8 19 -7.2 72 72 ENE 5 7 29.82 1010 10 16 0.00 0.00
2:53 am 02:53 Clear 26 -3.3 18 -7.8 71 71 S 3 6 29.78 1009 10 16 0.00 0.00
3:53 am 03:53 Clear 24 -4.4 17 -8.3 75 75 Calm 29.77 1008 10 16 0.00 0.00
4:53 am 04:53 Clear 22 -5.6 16 -8.9 78 78 Calm 29.76 1008 10 16 0.00 0.00
5:53 am 05:53 Clear 23 -5 18 -7.8 81 81 NW 6 9 29.76 1008 10 16 0.00 0.00
6:53 am 06:53 Clear 22 -5.6 17 -8.3 82 82 NW 6 9 29.81 1009 10 16 0.00 0.00
7:53 am 07:53 Sunny 29 -1.7 23 -5 78 78 W 5 7 29.82 1010 10 16 0.00 0.00
8:53 am 08:53 Sunny 39 3.9 28 -2.2 65 65 NW 8 13 29.82 1010 10 16 0.00 0.00
9:53 am 09:53 Sunny 49 9.4 28 -2.2 44 44 NW 14 22 29.81 1009 10 16 0.00 0.00
10:53 am 10:53 Sunny 55 12.8 27 -2.8 34 34 NW 14 22 29.80 1009 10 16 0.00 0.00
11:53 am 11:53 Sunny 59 15 26 -3.3 28 28 N 14 22 29.80 1009 10 16 0.00 0.00
12:53 pm 12:53 Sunny 62 16.7 25 -3.9 24 24 N 14 22 29.78 1009 10 16 0.00 0.00
1:53 pm 13:53 Sunny 64 17.8 24 -4.4 22 22 NNW 10 17 29.77 1008 10 16 0.00 0.00
2:53 pm 14:53 Sunny 64 17.8 23 -5 21 21 NW 12 19 29.75 1008 10 16 0.00 0.00
3:53 pm 15:53 Sunny 64 17.8 21 -6.1 19 19 WNW 13 20 29.75 1008 10 16 0.00 0.00
4:53 pm 16:53 Sunny 63 17.2 21 -6.1 20 20 VRB 7 11 29.76 1008 10 16 0.00 0.00
5:53 pm 17:53 Sunny 56 13.3 27 -2.8 33 33 E 13 20 29.77 1008 10 16 0.00 0.00
6:53 pm 18:53 Clear 46 7.8 28 -2.2 50 50 E 9 15 29.81 1010 10 16 0.00 0.00
7:53 pm 19:53 Clear 41 5 27 -2.8 57 57 E 10 17 29.80 1009 10 16 0.00 0.00
8:53 pm 20:53 Clear 40 4.4 27 -2.8 60 60 E 10 17 29.79 1009 10 16 0.00 0.00
9:53 pm 21:53 Mostly Clear 39 3.9 27 -2.8 62 62 SSE 3 6 29.82 1010 10 16 0.00 0.00
10:53 pm 22:53 Clear 42 5.6 26 -3.3 53 53 SE 9 15 29.76 1008 10 16 0.00 0.00
11:53 pm 23:53 Clear 42 5.6 24 -4.4 49 49 SSE 9 15 29.73 1007 10 16 0.00 0.00

Powered by AerisWeather